Location: Mentone
(34.5413°N, 85.5351°W)
Time: 08:09:55
(UTC-05:00)

Tiros 1 despin weight - All Passes

Search period start: 26 July 2014 00:00
Search period end: 05 August 2014 00:00
Orbit: 602 x 652 km, 48.2° (Epoch: 25 July)

Date Brightness Start Highest point End Pass type
(mag) Time Alt. Az. Time Alt. Az. Time Alt. Az.
26 Jul - 00:05:44 10° NNW 00:09:26 25° NNE 00:13:07 10° E visible
26 Jul - 01:47:05 10° NW 01:51:31 73° SW 01:55:57 10° SE night (unlit)
26 Jul - 17:34:41 10° SSW 17:38:56 38° SE 17:43:09 10° ENE daylight
26 Jul - 19:16:24 10° W 19:20:41 38° NNW 19:24:56 10° NE daylight
26 Jul - 21:00:39 10° NW 21:03:24 16° N 21:06:09 10° NNE visible
26 Jul - 22:43:48 10° NNW 22:46:35 16° N 22:49:22 10° NE visible
27 Jul - 00:25:01 10° NW 00:29:16 41° NNE 00:33:28 10° ESE visible
27 Jul - 02:06:57 10° WNW 02:10:55 32° SW 02:14:52 10° SSE night (unlit)
27 Jul - 16:15:24 10° SSE 16:17:09 12° SE 16:18:54 10° ESE daylight
27 Jul - 17:53:45 10° SW 17:58:22 83° SE 18:02:56 10° NE daylight
27 Jul - 19:36:49 10° WNW 19:40:32 24° NNW 19:44:13 10° NNE daylight
27 Jul - 21:21:09 10° NNW 21:23:33 14° N 21:25:56 10° NNE visible
27 Jul - 23:03:11 10° NNW 23:06:38 21° NNE 23:10:04 10° ENE visible
28 Jul - 00:44:25 10° NW 00:48:54 82° NE 00:53:20 10° SE visible
28 Jul - 02:27:50 10° W 02:30:09 14° SW 02:32:28 10° SSW night (unlit)
28 Jul - 16:32:26 10° SSW 16:36:22 27° SE 16:40:15 10° ENE daylight
28 Jul - 18:13:29 10° WSW 18:17:57 49° NNW 18:22:23 10° NE daylight
28 Jul - 19:57:29 10° NW 20:00:32 17° NNW 20:03:33 10° NNE daylight
28 Jul - 21:41:06 10° NNW 21:43:42 15° N 21:46:17 10° NE visible
28 Jul - 23:22:28 10° NW 23:26:31 33° NNE 23:30:33 10° E visible
29 Jul - 01:04:06 10° WNW 01:08:21 45° SW 01:12:34 10° SSE visible
29 Jul - 16:51:09 10° SW 16:55:44 61° SE 17:00:15 10° ENE daylight
29 Jul - 18:33:43 10° W 18:37:44 29° NNW 18:41:41 10° NE daylight
29 Jul - 20:18:08 10° NW 20:20:39 14° N 20:23:09 10° NNE visible
29 Jul - 22:00:36 10° NNW 22:03:48 19° NNE 22:06:58 10° ENE visible
29 Jul - 23:41:48 10° NW 23:46:14 61° NE 23:50:38 10° ESE visible
30 Jul - 01:24:25 10° W 01:27:38 20° SW 01:30:52 10° S night (unlit)
30 Jul - 15:30:25 10° S 15:33:49 20° SE 15:37:11 10° E daylight
30 Jul - 17:10:38 10° WSW 17:15:15 65° NW 17:19:48 10° NE daylight
30 Jul - 18:54:19 10° WNW 18:57:40 20° NNW 19:00:59 10° NNE daylight
30 Jul - 20:38:19 10° NNW 20:40:48 14° N 20:43:17 10° NE visible
30 Jul - 22:19:54 10° NW 22:23:45 27° NNE 22:27:34 10° E visible
31 Jul - 00:01:21 10° WNW 00:05:46 63° SW 00:10:08 10° SE visible
31 Jul - 15:48:41 10° SSW 15:53:07 44° SE 15:57:30 10° ENE daylight
31 Jul - 17:30:41 10° W 17:34:57 35° NNW 17:39:09 10° NE daylight
31 Jul - 19:15:01 10° NW 19:17:44 15° N 19:20:27 10° NNE daylight
31 Jul - 20:57:58 10° NNW 21:00:56 17° NNE 21:03:52 10° NE visible
31 Jul - 22:39:12 10° NW 22:43:32 47° NNE 22:47:50 10° ESE visible
01 Aug - 00:21:19 10° WNW 00:25:07 28° SW 00:28:53 10° SSE visible
01 Aug - 14:28:45 10° SSE 14:31:16 14° SE 14:33:47 10° E daylight
01 Aug - 16:07:53 10° SW 16:12:34 86° NW 16:17:11 10° NE daylight
01 Aug - 17:51:09 10° WNW 17:54:49 23° NNW 17:58:26 10° NNE daylight
01 Aug - 19:35:25 10° NNW 19:37:54 14° N 19:40:21 10° NNE daylight
01 Aug - 21:17:19 10° NNW 21:20:57 23° NNE 21:24:32 10° ENE visible
01 Aug - 22:58:38 10° NW 23:03:08 86° SW 23:07:35 10° SE visible
02 Aug - 00:42:41 10° WSW 00:44:19 12° SW 00:45:56 10° SSW night (unlit)
02 Aug - 14:46:21 10° SSW 14:50:31 32° SE 14:54:38 10° ENE daylight
02 Aug - 16:27:43 10° WSW 16:32:11 44° NNW 16:36:36 10° NE daylight
02 Aug - 18:11:51 10° NW 18:14:51 17° NNW 18:17:49 10° NNE daylight
02 Aug - 19:55:17 10° NNW 19:58:02 16° N 20:00:47 10° NE daylight
02 Aug - 21:36:37 10° NW 21:40:48 37° NNE 21:44:57 10° E visible
02 Aug - 23:18:24 10° WNW 23:22:33 38° SW 23:26:40 10° SSE visible
03 Aug - 15:05:14 10° SW 15:09:54 71° SE 15:14:31 10° ENE daylight
03 Aug - 16:48:02 10° W 16:51:59 27° NNW 16:55:54 10° NE daylight
03 Aug - 18:32:25 10° NW 18:34:58 15° N 18:37:30 10° NNE daylight
03 Aug - 20:14:44 10° NNW 20:18:07 20° NNE 20:21:27 10° ENE visible
03 Aug - 21:55:59 10° NW 22:00:29 70° NE 22:04:55 10° ESE visible
03 Aug - 23:38:55 10° W 23:41:49 17° SW 23:44:42 10° S visible
04 Aug - 13:44:12 10° S 13:47:56 24° SE 13:51:38 10° E daylight
04 Aug - 15:24:50 10° WSW 15:29:27 57° NW 15:34:01 10° NE daylight
04 Aug - 17:08:40 10° WNW 17:11:57 19° NNW 17:15:13 10° NNE daylight
04 Aug - 18:52:30 10° NNW 18:55:08 15° N 18:57:44 10° NE daylight
04 Aug - 20:34:01 10° NW 20:38:02 30° NNE 20:42:00 10° E visible
04 Aug - 22:15:35 10° WNW 22:19:58 54° SW 22:24:18 10° SE visible
